Hourly Data Report for October 23, 2014

All times are specified in Local Standard Time (LST). Add 1 hour to adjust for Daylight Saving Time where and when it is observed.

CLYDE RIVER A
NUNAVUT

70°29'09.000" N
68°31'01.000" W
26.50 m
2400804
71090
YCY

Download Data

Hourly Data (October 2014)
Hourly Data Report for October 23, 2014
Temp Definition
°C
Dew Point Temp Definition
°C
Rel Hum Definition
%
Wind Dir Definition
10's deg

Wind Spd Definition
km/h
Visibility Definition
km
Stn Press Definition
kPa
Hmdx Definition


Wind Chill Definition


Weather Definition


TIME
00:00 Legend Double Dagger -7.6 -9.1 89 30 39 2.0 99.61   -17 Snow
01:00 Legend Double Dagger -7.5 -8.6 92 30 37 0.8 99.61   -17 Moderate Snow
02:00 Legend Double Dagger -8.2 -9.3 92 31 45 0.6 99.62   -19 Moderate Snow
03:00 Legend Double Dagger -9.0 -10.1 92 32 52 0.4 99.68   -21 Heavy Snow
04:00 Legend Double Dagger -9.1 -10.2 92 32 35 2.0 99.74   -19 Snow
05:00 Legend Double Dagger -10.2 -12.4 84 31 35 2.8 99.80   -20 Snow
06:00 Legend Double Dagger -10.4 -12.1 88 32 37 1.6 99.82   -21 Snow
07:00 Legend Double Dagger -11.1 -12.6 89 31 39 2.0 99.87   -22 Snow
08:00 Legend Double Dagger -11.2 -12.5 90 31 43 1.2 99.89   -23 Snow
09:00 Legend Double Dagger -12.1 -13.7 88 29 39 0.6 99.90   -23 Moderate Snow,Blowing Snow
10:00 Legend Double Dagger -13.4 -15.4 85 30 46 0.6 99.88   -26 Moderate Snow,Blowing Snow
11:00 Legend Double Dagger -14.6 -17.2 81 30 45 2.0 99.90   -28 Snow,Blowing Snow
12:00 Legend Double Dagger -14.7 -17.9 77 30 41 1.6 99.91   -27 Snow,Blowing Snow
13:00 Legend Double Dagger -15.0 -19.2 71 30 26 16.1 99.94   -25 LegendNANA
14:00 Legend Double Dagger -15.6 -20.2 68 29 32 16.1 99.91   -27 LegendNANA
15:00 Legend Double Dagger -17.0 -21.9 66 30 28 16.1 99.90   -28 LegendNANA
16:00 Legend Double Dagger -18.6 -22.8 70 29 17 16.1 99.85   -28 LegendNANA
17:00 Legend Double Dagger -16.4 -20.8 69 29 28 16.1 99.80   -28 LegendNANA
18:00 Legend Double Dagger -13.0 -17.3 71 28 32 16.1 99.72   -24 LegendNANA
19:00 Legend Double Dagger -11.1 -14.9 74 26 21 16.1 99.62   -19 Snow
20:00 Legend Double Dagger -10.4 -12.2 87 28 55 0.8 99.41   -23 Snow,Blowing Snow
21:00 Legend Double Dagger -9.6 -10.7 92 29 71 0.2 99.38   -23 Heavy Snow
22:00 Legend Double Dagger -7.9 -8.8 93 LegendMM LegendMM 0.2 99.49     Heavy Snow
23:00 Legend Double Dagger -7.4 -8.2 94 LegendMM LegendMM 0.2 99.53     Heavy Snow

Notes on Data Quality.

Legend

  • E = Estimated
  • M = Missing
  • NA = Not Available
  • ‡ = Partner data that is not subject to review by the National Climate Archives
Date modified: